Regional Weather Roundup
Issued by NWS

Home | Current Version | Previous Version | Graphics & Text | Print | Product List | Glossary On
Versions: 1 2 3 4 5 6 7 8 9 10 11 12 13 14 15 16 17 18 19 20 21 22 23 24 25 26 27 28 29 30 31 32 33 34 35 36 37 38 39 40 41 42 43 44 45 46 47 48 49 50
000
ASUS43 KLMK 311310
RWRKY
KENTUCKY REGIONAL WEATHER ROUNDUP
NATIONAL WEATHER SERVICE LOUISVILLE KY
900 AM EDT WED AUG 31 2016

NOTE "FAIR" INDICATES FEW OR NO CLOUDS BELOW 12,000 FEET
WITH NO SIGNIFICANT WEATHER AND/OR OBSTRUCTIONS TO VISIBILITY.

KYZ001>023-026-027-061>063-070>075-311400-
WESTERN AND SOUTH CENTRAL KENTUCKY

CITY           SKY/WX    TMP DP  RH WIND       PRES   REMARKS
PADUCAH        SUNNY     76  72  87 N5        30.02S
HENDERSON      SUNNY     75  70  83 NW3       30.01F
OWENSBORO      SUNNY     76  74  93 NW8       30.02S
HOPKINSVILLE   SUNNY     76  74  92 N2        30.01S
BOWLING GREEN  SUNNY     78  73  84 CALM      30.01S
GLASGOW        SUNNY     74  74 100 CALM      30.02S
$$

KYZ024-025-028>034-038-045-046-053-311400-
NORTH CENTRAL KENTUCKY

CITY           SKY/WX    TMP DP  RH WIND       PRES   REMARKS
LOUISVILLE/SDF CLOUDY    78  71  79 CALM      30.01S
LOUISVILLE/LOU MOSUNNY   77  69  76 CALM      30.02S
FORT KNOX      PTSUNNY   74  71  91 CALM      30.01S
$$

KYZ035>037-039>044-047>052-055>060-089>105-311400-
NORTHEAST KENTUCKY

CITY           SKY/WX    TMP DP  RH WIND       PRES   REMARKS
LEXINGTON      SUNNY     74  66  76 CALM      30.03S
COVINGTON      PTSUNNY   72  71  97 N6        30.04R
FRANKFORT      SUNNY     74  68  81 CALM      30.02S
$$

KYZ054-064>069-076>088-106>120-311400-
SOUTHEAST KENTUCKY

CITY           SKY/WX    TMP DP  RH WIND       PRES   REMARKS
JACKSON        FOG       69  68  96 CALM      30.05S VSB<1/4
LONDON         SUNNY     72  67  84 CALM      30.05S
SOMERSET       PTSUNNY   70  70 100 CALM      30.05S FOG
MIDDLESBORO    CLOUDY    67  67 100 CALM      30.07S FOG
MONTICELLO     SUNNY    N/A N/A N/A SE3       30.05S
$$





USA.gov is the U.S. government's official web portal to all federal, state and local government web resources and services.